Time,TemperatureF,DewpointF,PressureIn,WindDirection,WindDirectionDegrees,WindSpeedMPH,WindSpeedGustMPH,Humidity,HourlyPrecipIn,Conditions,Clouds,dailyrainin,SolarRadiationWatts/m^2,SoftwareType,DateUTC
2013-02-28 00:01:00,49.0,49.0,-100.00,ENE,69,2.0,5.0,100,0.00,,,0.03,0.000000,,2013-02-28 08:01:00,
2013-02-28 00:11:00,49.0,49.0,-100.00,ENE,69,2.0,5.0,100,0.00,,,0.03,0.000000,,2013-02-28 08:11:00,
2013-02-28 00:42:00,48.0,48.0,-100.00,NNE,27,1.0,6.0,100,0.01,,,0.04,0.000000,,2013-02-28 08:42:00,
2013-02-28 00:53:00,48.0,48.0,-100.00,NNE,27,1.0,6.0,100,0.01,,,0.04,0.000000,,2013-02-28 08:53:00,
2013-02-28 01:03:00,48.0,48.0,-100.00,NNE,27,1.0,6.0,100,0.01,,,0.04,0.000000,,2013-02-28 09:03:00,
2013-02-28 01:11:00,48.0,48.0,-100.00,NNE,27,1.0,6.0,100,0.01,,,0.04,0.000000,,2013-02-28 09:11:00,
2013-02-28 01:42:00,47.0,47.0,-100.00,NE,56,2.0,6.0,100,0.03,,,0.07,0.000000,,2013-02-28 09:42:00,
2013-02-28 01:52:00,47.0,47.0,-100.00,NE,56,2.0,6.0,100,0.03,,,0.07,0.000000,,2013-02-28 09:52:00,
2013-02-28 02:01:00,47.0,47.0,-100.00,NE,56,2.0,6.0,100,0.03,,,0.07,0.000000,,2013-02-28 10:01:00,
2013-02-28 02:11:00,47.0,47.0,-100.00,NE,56,2.0,6.0,100,0.03,,,0.07,0.000000,,2013-02-28 10:11:00,
2013-02-28 02:32:00,48.0,48.0,-100.00,NE,48,2.0,7.0,100,0.06,,,0.13,0.000000,,2013-02-28 10:32:00,
2013-02-28 02:42:00,48.0,48.0,-100.00,NE,48,2.0,7.0,100,0.06,,,0.13,0.000000,,2013-02-28 10:42:00,
2013-02-28 02:52:00,48.0,48.0,-100.00,NE,48,2.0,7.0,100,0.06,,,0.13,0.000000,,2013-02-28 10:52:00,
2013-02-28 03:01:00,48.0,48.0,-100.00,NE,48,2.0,7.0,100,0.06,,,0.13,0.000000,,2013-02-28 11:01:00,
2013-02-28 03:11:00,48.0,48.0,-100.00,NE,48,2.0,7.0,100,0.06,,,0.13,0.000000,,2013-02-28 11:11:00,
2013-02-28 03:32:00,49.0,49.0,-100.00,ENE,73,1.0,5.0,100,0.08,,,0.21,0.000000,,2013-02-28 11:32:00,
2013-02-28 03:42:00,49.0,49.0,-100.00,ENE,73,1.0,5.0,100,0.08,,,0.21,0.000000,,2013-02-28 11:42:00,
2013-02-28 03:52:00,49.0,49.0,-100.00,ENE,73,1.0,5.0,100,0.08,,,0.21,0.000000,,2013-02-28 11:52:00,
2013-02-28 04:01:00,49.0,49.0,-100.00,ENE,73,1.0,5.0,100,0.08,,,0.21,0.000000,,2013-02-28 12:01:00,
2013-02-28 04:11:00,49.0,49.0,-100.00,ENE,73,1.0,5.0,100,0.08,,,0.21,0.000000,,2013-02-28 12:11:00,
2013-02-28 04:32:00,50.0,50.0,-100.00,SSW,195,3.0,9.0,100,0.04,,,0.25,0.000000,,2013-02-28 12:32:00,
2013-02-28 04:42:00,50.0,50.0,-100.00,SSW,195,3.0,9.0,100,0.04,,,0.25,0.000000,,2013-02-28 12:42:00,
2013-02-28 04:52:00,50.0,50.0,-100.00,SSW,195,3.0,9.0,100,0.04,,,0.25,0.000000,,2013-02-28 12:52:00,
2013-02-28 05:01:00,50.0,50.0,-100.00,SSW,195,3.0,9.0,100,0.04,,,0.25,0.000000,,2013-02-28 13:01:00,
2013-02-28 05:11:00,50.0,50.0,-100.00,SSW,195,3.0,9.0,100,0.04,,,0.25,0.000000,,2013-02-28 13:11:00,
2013-02-28 05:32:00,50.0,50.0,-100.00,SW,214,6.0,15.0,100,0.02,,,0.27,0.000000,,2013-02-28 13:32:00,
2013-02-28 05:42:00,50.0,50.0,-100.00,SW,214,6.0,15.0,100,0.02,,,0.27,0.000000,,2013-02-28 13:42:00,
2013-02-28 05:52:00,50.0,50.0,-100.00,SW,214,6.0,15.0,100,0.02,,,0.27,0.000000,,2013-02-28 13:52:00,
2013-02-28 06:01:00,50.0,50.0,-100.00,SW,214,6.0,15.0,100,0.02,,,0.27,0.000000,,2013-02-28 14:01:00,
2013-02-28 06:11:00,50.0,50.0,-100.00,SW,214,6.0,15.0,100,0.02,,,0.27,0.000000,,2013-02-28 14:11:00,
2013-02-28 06:32:00,50.0,50.0,-100.00,SW,214,6.0,10.0,100,0.05,,,0.32,0.000000,,2013-02-28 14:32:00,
2013-02-28 06:42:00,50.0,50.0,-100.00,SW,214,6.0,10.0,100,0.05,,,0.32,0.000000,,2013-02-28 14:42:00,
2013-02-28 06:52:00,50.0,50.0,-100.00,SW,214,6.0,10.0,100,0.05,,,0.32,0.000000,,2013-02-28 14:52:00,
2013-02-28 07:02:00,50.0,50.0,-100.00,SW,214,6.0,10.0,100,0.05,,,0.32,0.000000,,2013-02-28 15:02:00,
2013-02-28 07:11:00,50.0,50.0,-100.00,SW,214,6.0,10.0,100,0.05,,,0.32,0.000000,,2013-02-28 15:11:00,
2013-02-28 07:32:00,49.0,49.0,-100.00,SSW,196,4.0,14.0,100,0.12,,,0.44,0.000000,,2013-02-28 15:32:00,
2013-02-28 07:42:00,49.0,49.0,-100.00,SSW,196,4.0,14.0,100,0.12,,,0.44,0.000000,,2013-02-28 15:42:00,
2013-02-28 07:52:00,49.0,49.0,-100.00,SSW,196,4.0,14.0,100,0.12,,,0.44,0.000000,,2013-02-28 15:52:00,
2013-02-28 08:01:00,49.0,49.0,-100.00,SSW,196,4.0,14.0,100,0.12,,,0.44,0.000000,,2013-02-28 16:01:00,
2013-02-28 08:11:00,49.0,49.0,-100.00,SSW,196,4.0,14.0,100,0.12,,,0.44,0.000000,,2013-02-28 16:11:00,
2013-02-28 08:32:00,49.0,49.0,-100.00,NE,46,0.0,4.0,100,0.19,,,0.63,10.000000,,2013-02-28 16:32:00,
2013-02-28 08:43:00,49.0,49.0,-100.00,NE,46,0.0,4.0,100,0.19,,,0.63,10.000000,,2013-02-28 16:43:00,
2013-02-28 08:52:00,49.0,49.0,-100.00,NE,46,0.0,4.0,100,0.19,,,0.63,10.000000,,2013-02-28 16:52:00,
2013-02-28 09:01:00,49.0,49.0,-100.00,NE,46,0.0,4.0,100,0.19,,,0.63,10.000000,,2013-02-28 17:01:00,
2013-02-28 09:11:00,49.0,49.0,-100.00,NE,46,0.0,4.0,100,0.19,,,0.63,10.000000,,2013-02-28 17:11:00,
2013-02-28 09:42:00,50.0,50.0,-100.00,ENE,64,1.0,3.0,100,0.13,,,-99.99,36.000000,,2013-02-28 17:42:00,
2013-02-28 09:52:00,50.0,50.0,-100.00,ENE,64,1.0,3.0,100,0.13,,,-99.99,36.000000,,2013-02-28 17:52:00,
2013-02-28 10:02:00,50.0,50.0,-100.00,ENE,64,1.0,3.0,100,0.13,,,-99.99,36.000000,,2013-02-28 18:02:00,
2013-02-28 10:11:00,50.0,50.0,-100.00,ENE,64,1.0,3.0,100,0.13,,,-99.99,36.000000,,2013-02-28 18:11:00,
2013-02-28 10:42:00,51.0,51.0,-100.00,NE,40,1.0,4.0,100,0.07,,,-99.99,54.000000,,2013-02-28 18:42:00,
2013-02-28 10:52:00,51.0,51.0,-100.00,NE,40,1.0,4.0,100,0.07,,,-99.99,54.000000,,2013-02-28 18:52:00,
2013-02-28 11:01:00,51.0,51.0,-100.00,NE,40,1.0,4.0,100,0.07,,,-99.99,54.000000,,2013-02-28 19:01:00,
2013-02-28 11:11:00,51.0,51.0,-100.00,NE,40,1.0,4.0,100,0.07,,,-99.99,54.000000,,2013-02-28 19:11:00,
2013-02-28 11:42:00,51.0,51.0,-100.00,SE,135,1.0,4.0,100,0.13,,,-99.99,63.000000,,2013-02-28 19:42:00,
2013-02-28 11:52:00,51.0,51.0,-100.00,SE,135,1.0,4.0,100,0.13,,,-99.99,63.000000,,2013-02-28 19:52:00,
2013-02-28 12:01:00,51.0,51.0,-100.00,SE,135,1.0,4.0,100,0.13,,,-99.99,63.000000,,2013-02-28 20:01:00,
2013-02-28 12:11:00,51.0,51.0,-100.00,SE,135,1.0,4.0,100,0.13,,,-99.99,63.000000,,2013-02-28 20:11:00,
2013-02-28 12:42:00,52.0,52.0,-100.00,South,185,6.0,12.0,100,0.12,,,1.07,104.000000,,2013-02-28 20:42:00,
2013-02-28 12:52:00,52.0,52.0,-100.00,South,185,6.0,12.0,100,0.12,,,1.07,104.000000,,2013-02-28 20:52:00,
2013-02-28 13:01:00,52.0,52.0,-100.00,South,185,6.0,12.0,100,0.12,,,1.07,104.000000,,2013-02-28 21:01:00,
2013-02-28 13:11:00,52.0,52.0,-100.00,South,185,6.0,12.0,100,0.12,,,1.07,104.000000,,2013-02-28 21:11:00,
2013-02-28 13:32:00,52.0,52.0,-100.00,West,270,2.0,11.0,100,0.07,,,1.14,86.000000,,2013-02-28 21:32:00,
2013-02-28 13:42:00,52.0,52.0,-100.00,West,270,2.0,11.0,100,0.07,,,1.14,86.000000,,2013-02-28 21:42:00,
2013-02-28 13:52:00,52.0,52.0,-100.00,West,270,2.0,11.0,100,0.07,,,1.14,86.000000,,2013-02-28 21:52:00,
2013-02-28 14:01:00,52.0,52.0,-100.00,West,270,2.0,11.0,100,0.07,,,1.14,86.000000,,2013-02-28 22:01:00,
2013-02-28 14:11:00,52.0,52.0,-100.00,West,270,2.0,11.0,100,0.07,,,1.14,86.000000,,2013-02-28 22:11:00,
2013-02-28 14:42:00,52.0,52.0,-100.00,SSE,149,2.0,9.0,100,0.01,,,1.15,65.000000,,2013-02-28 22:42:00,
2013-02-28 14:52:00,52.0,52.0,-100.00,SSE,149,2.0,9.0,100,0.01,,,1.15,65.000000,,2013-02-28 22:52:00,
2013-02-28 15:01:00,52.0,52.0,-100.00,SSE,149,2.0,9.0,100,0.01,,,1.15,65.000000,,2013-02-28 23:01:00,
2013-02-28 15:11:00,52.0,52.0,-100.00,SSE,149,2.0,9.0,100,0.01,,,1.15,65.000000,,2013-02-28 23:11:00,
2013-02-28 15:32:00,52.0,52.0,-100.00,WSW,244,1.0,6.0,100,0.07,,,1.22,51.000000,,2013-02-28 23:32:00,
2013-02-28 15:42:00,52.0,52.0,-100.00,WSW,244,1.0,6.0,100,0.07,,,1.22,51.000000,,2013-02-28 23:42:00,
2013-02-28 15:52:00,52.0,52.0,-100.00,WSW,244,1.0,6.0,100,0.07,,,1.22,51.000000,,2013-02-28 23:52:00,
2013-02-28 16:01:00,52.0,52.0,-100.00,WSW,244,1.0,6.0,100,0.07,,,1.22,51.000000,,2013-03-01 00:01:00,
2013-02-28 16:11:00,52.0,52.0,-100.00,WSW,244,1.0,6.0,100,0.07,,,1.22,51.000000,,2013-03-01 00:11:00,
2013-02-28 16:32:00,52.0,52.0,-100.00,South,175,6.0,12.0,100,0.07,,,1.29,51.000000,,2013-03-01 00:32:00,
2013-02-28 16:42:00,52.0,52.0,-100.00,South,175,6.0,12.0,100,0.07,,,1.29,51.000000,,2013-03-01 00:42:00,
2013-02-28 16:52:00,52.0,52.0,-100.00,South,175,6.0,12.0,100,0.07,,,1.29,51.000000,,2013-03-01 00:52:00,
2013-02-28 17:01:00,52.0,52.0,-100.00,South,175,6.0,12.0,100,0.07,,,1.29,51.000000,,2013-03-01 01:01:00,
2013-02-28 17:11:00,52.0,52.0,-100.00,South,175,6.0,12.0,100,0.07,,,1.29,51.000000,,2013-03-01 01:11:00,
2013-02-28 17:32:00,51.0,51.0,-100.00,South,182,3.0,8.0,100,0.03,,,1.32,21.000000,,2013-03-01 01:32:00,
2013-02-28 17:42:00,51.0,51.0,-100.00,South,182,3.0,8.0,100,0.03,,,1.32,21.000000,,2013-03-01 01:42:00,
2013-02-28 17:52:00,51.0,51.0,-100.00,South,182,3.0,8.0,100,0.03,,,1.32,21.000000,,2013-03-01 01:52:00,
2013-02-28 18:01:00,51.0,51.0,-100.00,South,182,3.0,8.0,100,0.03,,,1.32,21.000000,,2013-03-01 02:01:00,
2013-02-28 18:11:00,51.0,51.0,-100.00,South,182,3.0,8.0,100,0.03,,,1.32,21.000000,,2013-03-01 02:11:00,
2013-02-28 18:32:00,51.0,51.0,-100.00,SSW,192,4.0,10.0,100,0.01,,,1.33,4.000000,,2013-03-01 02:32:00,
2013-02-28 18:42:00,51.0,51.0,-100.00,SSW,192,4.0,10.0,100,0.01,,,1.33,4.000000,,2013-03-01 02:42:00,
2013-02-28 18:52:00,51.0,51.0,-100.00,SSW,192,4.0,10.0,100,0.01,,,1.33,4.000000,,2013-03-01 02:52:00,
2013-02-28 19:01:00,51.0,51.0,-100.00,SSW,192,4.0,10.0,100,0.01,,,1.33,4.000000,,2013-03-01 03:01:00,
2013-02-28 19:11:00,51.0,51.0,-100.00,SSW,192,4.0,10.0,100,0.01,,,1.33,4.000000,,2013-03-01 03:11:00,
2013-02-28 19:32:00,51.0,51.0,-100.00,South,190,3.0,12.0,100,0.01,,,1.34,0.000000,,2013-03-01 03:32:00,
2013-02-28 19:42:00,51.0,51.0,-100.00,South,190,3.0,12.0,100,0.01,,,1.34,0.000000,,2013-03-01 03:42:00,
2013-02-28 19:52:00,51.0,51.0,-100.00,South,190,3.0,12.0,100,0.01,,,1.34,0.000000,,2013-03-01 03:52:00,
2013-02-28 20:01:00,51.0,51.0,-100.00,South,190,3.0,12.0,100,0.01,,,1.34,0.000000,,2013-03-01 04:01:00,
2013-02-28 20:11:00,51.0,51.0,-100.00,South,190,3.0,12.0,100,0.01,,,1.34,0.000000,,2013-03-01 04:11:00,
2013-02-28 20:42:00,51.0,51.0,-100.00,South,176,3.0,12.0,100,0.03,,,1.37,0.000000,,2013-03-01 04:42:00,
2013-02-28 20:52:00,51.0,51.0,-100.00,South,176,3.0,12.0,100,0.03,,,1.37,0.000000,,2013-03-01 04:52:00,
2013-02-28 21:02:00,51.0,51.0,-100.00,South,176,3.0,12.0,100,0.03,,,1.37,0.000000,,2013-03-01 05:02:00,
2013-02-28 21:11:00,51.0,51.0,-100.00,South,176,3.0,12.0,100,0.03,,,1.37,0.000000,,2013-03-01 05:11:00,
2013-02-28 21:33:00,51.0,51.0,-100.00,SSW,197,3.0,7.0,100,0.01,,,1.37,0.000000,,2013-03-01 05:33:00,
2013-02-28 21:42:00,51.0,51.0,-100.00,SSW,197,3.0,7.0,100,0.01,,,1.37,0.000000,,2013-03-01 05:42:00,
2013-02-28 21:52:00,51.0,51.0,-100.00,SSW,197,3.0,7.0,100,0.01,,,1.37,0.000000,,2013-03-01 05:52:00,
2013-02-28 22:01:00,51.0,51.0,-100.00,SSW,197,3.0,7.0,100,0.01,,,1.37,0.000000,,2013-03-01 06:01:00,
2013-02-28 22:11:00,51.0,51.0,-100.00,SSW,197,3.0,7.0,100,0.01,,,1.37,0.000000,,2013-03-01 06:11:00,
2013-02-28 22:32:00,52.0,52.0,-100.00,SSW,205,6.0,14.0,100,0.00,,,1.36,0.000000,,2013-03-01 06:32:00,
2013-02-28 22:42:00,52.0,52.0,-100.00,SSW,205,6.0,14.0,100,0.00,,,1.36,0.000000,,2013-03-01 06:42:00,
2013-02-28 22:52:00,52.0,52.0,-100.00,SSW,205,6.0,14.0,100,0.00,,,1.36,0.000000,,2013-03-01 06:52:00,
2013-02-28 23:01:00,52.0,52.0,-100.00,SSW,205,6.0,14.0,100,0.00,,,1.36,0.000000,,2013-03-01 07:01:00,
2013-02-28 23:11:00,52.0,52.0,-100.00,SSW,205,6.0,14.0,100,0.00,,,1.36,0.000000,,2013-03-01 07:11:00,
2013-02-28 23:32:00,52.0,52.0,-100.00,SSW,207,3.0,11.0,100,0.01,,,1.37,0.000000,,2013-03-01 07:32:00,
2013-02-28 23:42:00,52.0,52.0,-100.00,SSW,207,3.0,11.0,100,0.01,,,1.37,0.000000,,2013-03-01 07:42:00,
2013-02-28 23:52:00,52.0,52.0,-100.00,SSW,207,3.0,11.0,100,0.01,,,1.37,0.000000,,2013-03-01 07:52:00,